Flag for Belgium Weather past 2 weeks in Mons, Belgium

Now
61 °F

Passing clouds.


Feels Like: 61 °F
Forecast: 48 / 68 °F
Wind: 2 mph from North

Location: Chievres


UV Index: 3 (Moderate)

Visibility: N/A


Pressure: 30.09 "Hg

Humidity: 68%

Dew point: 50 °F

Location of MonsLocation

Historic Weather in Mons

°F

Mons temperature yesterday

Maximum temperature yesterday: 63 °F (at 2:25 PM)
Minimum temperature yesterday: 46 °F (at 6:25 AM)
Average temperature yesterday: 54 °F

Past Weeks' High & Low Weather Summary

 TemperatureHumidityPressure
High68 °F (Apr 21, 4:25 PM)100% (Apr 9, 2:25 AM)30.42 "Hg (Apr 9, 2:25 AM)
Low32 °F (Apr 15, 5:25 AM)31% (Apr 16, 7:25 PM)29.59 "Hg (Apr 21, 3:25 PM)
Average50 °F74%30.07 "Hg
* Reported Apr 8 7:25 PM — Apr 23 7:25 PM, Mons, Weather by CustomWeather, © 2014

Note: Actual official high and low records may vary slightly from our data, if they occured in-between our weather recording intervals... More about our weather records

Advertising

Historic Weather Conditions — Data for Previous 24 hours

 ConditionsComfort  
Time TempWeatherWind HumidityBarometerVisibility
7:25 PM
Apr 23
63 °FBroken clouds.2 mph64%30.07 "HgN/A
6:25 PM64 °FPartly sunny.1 mph56%30.07 "HgN/A
5:25 PM66 °FMild.1 mph52%30.07 "HgN/A
5:03 PM66 °FPassing clouds.2 mph52%30.07 "HgN/A
4:25 PM66 °FScattered clouds.1 mph52%30.07 "HgN/A
3:25 PM64 °FPartly sunny.2 mph56%30.09 "HgN/A
2:25 PM63 °FPassing clouds.3 mph59%30.09 "HgN/A
1:25 PM64 °FPassing clouds.1 mph64%30.09 "HgN/A
12:25 PM63 °FMild.2 mph59%30.09 "HgN/A
12:03 PM61 °FCool.3 mph72%30.09 "HgN/A
11:51 AM61 °FCool.1 mph68%30.09 "Hg4 mi
11:04 AM57 °FPassing clouds.1 mph82%30.12 "Hg6 mi
10:25 AM54 °FScattered clouds.2 mph88%30.09 "Hg3 mi
9:25 AM50 °FDense fog.3 mph94%30.09 "Hg0 mi
8:25 AM48 °FDense fog.3 mph100%30.09 "Hg0 mi
7:25 AM46 °FDense fog.1 mph100%30.07 "Hg0 mi
6:25 AM48 °FDense fog.2 mph100%30.07 "Hg0 mi
5:25 AM45 °FQuite cool.1 mph93%30.07 "Hg1 mi
4:25 AM46 °FCool.2 mph93%30.04 "Hg0 mi
3:25 AM48 °FCool.2 mph94%30.04 "Hg3 mi
2:25 AM50 °FPassing clouds.5 mph94%30.04 "HgN/A
1:25 AM50 °FPassing clouds.3 mph94%30.01 "Hg5 mi
12:25 AM52 °FPassing clouds.3 mph94%30.01 "Hg6 mi
11:25 PM
Apr 22
54 °FPartly cloudy.6 mph82%30.01 "HgN/A
10:25 PM55 °FPassing clouds.8 mph77%29.98 "HgN/A
9:25 PM54 °FCool.7 mph82%29.95 "HgN/A
8:25 PM57 °FPartly sunny.6 mph72%29.92 "HgN/A
Weather by CustomWeather, © 2014

See weather overview